Location: Unspecified
(42.2936°N, 3.1641°W)
Time: 18:03:55
(UTC+01:00)

ISS - Visible Passes

Search period start: 25 February 2021 00:00
Search period end: 07 March 2021 00:00
Orbit: 417 x 422 km, 51.6° (Epoch: 26 February)

Date Brightness Start Highest point End Pass type
(mag) Time Alt. Az. Time Alt. Az. Time Alt. Az.
25 Feb -3.2 06:23:12 40° NW 06:23:28 41° NNW 06:26:41 10° NE visible
26 Feb -1.6 05:37:43 25° NE 05:37:43 25° NE 05:39:18 10° NE visible
26 Feb -1.9 07:10:44 10° WNW 07:13:16 20° NNW 07:15:50 10° NE visible
27 Feb -2.2 06:25:08 22° NNW 06:25:37 23° NNW 06:28:25 10° NE visible
28 Feb -1.5 05:39:31 21° NNE 05:39:31 21° NNE 05:41:01 10° NE visible
28 Feb -1.6 07:13:21 10° NW 07:15:35 16° N 07:17:51 10° NE visible
01 Mar -1.7 06:26:49 15° NNW 06:27:53 17° N 06:30:15 10° NE visible
02 Mar -1.4 05:41:08 17° N 05:41:08 17° N 05:42:43 10° NE visible
02 Mar -1.5 07:15:30 10° NW 07:17:54 18° N 07:20:17 10° NE visible
03 Mar -1.4 06:28:23 12° NNW 06:30:09 17° N 06:32:25 10° NE visible
04 Mar -1.4 05:42:40 16° N 05:42:40 16° N 05:44:40 10° NE visible
05 Mar -0.3 04:56:57 10° NE 04:56:57 10° NE 04:57:01 10° NE visible
05 Mar -1.6 06:29:54 11° NW 06:32:22 20° NNE 06:34:58 10° ENE visible
06 Mar -1.5 05:44:12 17° N 05:44:37 18° N 05:47:01 10° NE visible
